When you browse on this site, cookies collect data to enhance your experience and personalize the content and advertising you see.
Visit our Privacy Policy to learn more. By continuing to use the site, you agree to this use of cookies and data.
  • In Hungary
  • List of Countries
  • For 7 days
  • Water Temperature
  • Satellite Maps
  • Weather Map
  • News
  • Weather Widgets
  • user-avatar
    Login

    Hourly Weather Kayar

    Today, 11 December, Tuesday

    Time Temperature Precipitation Wind Pressure Humidity
    00:00 +25°C° 0 mm 5 mps 761 mmHg 34%
    01:00 +25°C° 0 mm 5 mps 761 mmHg 29%
    02:00 +23°C° 0 mm 5 mps 760 mmHg 25%
    03:00 +23°C° 0 mm 5 mps 760 mmHg 22%
    04:00 +22°C° 0 mm 5 mps 760 mmHg 20%
    05:00 +21°C° 0 mm 5 mps 760 mmHg 18%
    06:00 +22°C° 0 mm 5 mps 761 mmHg 17%
    07:00 +23°C° 0 mm 5 mps 761 mmHg 16%
    08:00 +26°C° 0 mm 5 mps 761 mmHg 15%
    09:00 +28°C° 0 mm 5 mps 761 mmHg 13%
    10:00 +32°C° 0 mm 5 mps 761 mmHg 11%
    11:00 +34°C° 0 mm 5 mps 761 mmHg 9%
    12:00 +35°C° 0 mm 5 mps 760 mmHg 9%
    13:00 +35°C° 0 mm 5 mps 760 mmHg 10%
    14:00 +36°C° 0 mm 5 mps 760 mmHg 10%
    15:00 +34°C° 0 mm 5 mps 759 mmHg 15%
    16:00 +32°C° 0 mm 6 mps 759 mmHg 20%
    17:00 +30°C° 0 mm 6 mps 759 mmHg 25%
    18:00 +28°C° 0 mm 6 mps 759 mmHg 32%
    19:00 +27°C° 0 mm 6 mps 760 mmHg 40%
    20:00 +24°C° 0 mm 7 mps 760 mmHg 47%
    21:00 +24°C° 0 mm 7 mps 760 mmHg 48%
    22:00 +24°C° 0 mm 7 mps 760 mmHg 49%
    23:00 +24°C° 0 mm 7 mps 760 mmHg 50%

    Tomorrow, 12 December, Wednesday

    Time Temperature Precipitation Wind Pressure Humidity
    00:00 +23°C° 0 mm 7 mps 760 mmHg 50%
    01:00 +23°C° 0 mm 7 mps 760 mmHg 49%
    02:00 +23°C° 0 mm 7 mps 760 mmHg 49%
    03:00 +22°C° 0 mm 7 mps 760 mmHg 46%
    04:00 +22°C° 0 mm 6 mps 760 mmHg 44%
    05:00 +21°C° 0 mm 6 mps 760 mmHg 42%
    06:00 +22°C° 0 mm 6 mps 760 mmHg 34%
    07:00 +23°C° 0 mm 6 mps 760 mmHg 26%
    08:00 +24°C° 0 mm 6 mps 761 mmHg 19%
    09:00 +28°C° 0 mm 6 mps 761 mmHg 15%
    10:00 +30°C° 0 mm 5 mps 761 mmHg 12%
    11:00 +34°C° 0 mm 5 mps 761 mmHg 9%
    12:00 +35°C° 0 mm 5 mps 760 mmHg 9%
    13:00 +35°C° 0 mm 5 mps 759 mmHg 9%
    14:00 +36°C° 0 mm 5 mps 759 mmHg 10%
    15:00 +34°C° 0 mm 5 mps 759 mmHg 16%
    16:00 +32°C° 0 mm 6 mps 758 mmHg 22%
    17:00 +30°C° 0 mm 6 mps 758 mmHg 28%
    18:00 +28°C° 0 mm 7 mps 759 mmHg 35%
    19:00 +27°C° 0 mm 7 mps 759 mmHg 43%
    20:00 +24°C° 0 mm 7 mps 760 mmHg 51%
    21:00 +24°C° 0 mm 7 mps 760 mmHg 52%
    22:00 +24°C° 0 mm 7 mps 760 mmHg 53%
    23:00 +24°C° 0 mm 7 mps 760 mmHg 55%

    Day after tomorrow, 13 December, Thursday

    Time Temperature Precipitation Wind Pressure Humidity
    00:00 +23°C° 0 mm 7 mps 759 mmHg 52%
    01:00 +23°C° 0 mm 7 mps 759 mmHg 49%
    02:00 +23°C° 0 mm 7 mps 759 mmHg 46%
    03:00 +23°C° 0 mm 7 mps 759 mmHg 39%
    04:00 +22°C° 0 mm 7 mps 759 mmHg 32%
    05:00 +22°C° 0 mm 6 mps 759 mmHg 24%
    06:00 +23°C° 0 mm 7 mps 760 mmHg 21%
    07:00 +24°C° 0 mm 7 mps 760 mmHg 17%
    08:00 +26°C° 0 mm 7 mps 760 mmHg 14%
    09:00 +29°C° 0 mm 7 mps 760 mmHg 12%
    10:00 +32°C° 0 mm 6 mps 760 mmHg 11%
    11:00 +35°C° 0 mm 6 mps 760 mmHg 9%
    12:00 +36°C° 0 mm 5 mps 759 mmHg 9%
    13:00 +37°C° 0 mm 5 mps 758 mmHg 9%
    14:00 +40°C° 0 mm 4 mps 758 mmHg 9%
    15:00 +37°C° 0 mm 5 mps 758 mmHg 13%
    16:00 +36°C° 0 mm 5 mps 758 mmHg 17%
    17:00 +34°C° 0 mm 5 mps 758 mmHg 21%
    18:00 +32°C° 0 mm 5 mps 758 mmHg 27%
    19:00 +29°C° 0 mm 4 mps 759 mmHg 32%
    20:00 +27°C° 0 mm 4 mps 759 mmHg 37%
    21:00 +27°C° 0 mm 4 mps 760 mmHg 32%
    22:00 +27°C° 0 mm 4 mps 760 mmHg 27%
    23:00 +27°C° 0 mm 3 mps 760 mmHg 22%

    14 December, Friday

    Time Temperature Precipitation Wind Pressure Humidity
    00:00 +27°C° 0 mm 4 mps 760 mmHg 20%
    01:00 +27°C° 0 mm 4 mps 760 mmHg 17%
    02:00 +27°C° 0 mm 4 mps 759 mmHg 15%
    03:00 +27°C° 0 mm 5 mps 759 mmHg 14%
    04:00 +27°C° 0 mm 5 mps 759 mmHg 14%
    05:00 +27°C° 0 mm 5 mps 759 mmHg 13%
    06:00 +27°C° 0 mm 5 mps 760 mmHg 14%
    07:00 +27°C° 0 mm 5 mps 761 mmHg 14%
    08:00 +27°C° 0 mm 6 mps 761 mmHg 15%
    09:00 +29°C° 0 mm 6 mps 761 mmHg 14%
    10:00 +33°C° 0 mm 6 mps 762 mmHg 13%
    11:00 +35°C° 0 mm 6 mps 762 mmHg 12%
    12:00 +35°C° 0 mm 6 mps 761 mmHg 11%
    13:00 +36°C° 0 mm 6 mps 760 mmHg 11%
    14:00 +38°C° 0 mm 6 mps 760 mmHg 10%
    15:00 +35°C° 0 mm 6 mps 760 mmHg 13%
    16:00 +34°C° 0 mm 7 mps 760 mmHg 16%
    17:00 +33°C° 0 mm 7 mps 760 mmHg 19%
    18:00 +32°C° 0 mm 7 mps 760 mmHg 25%
    19:00 +29°C° 0 mm 7 mps 761 mmHg 31%
    20:00 +28°C° 0 mm 7 mps 762 mmHg 36%
    21:00 +28°C° 0 mm 7 mps 762 mmHg 33%
    22:00 +28°C° 0 mm 8 mps 762 mmHg 30%
    23:00 +28°C° 0 mm 8 mps 762 mmHg 26%

    15 December, Saturday

    Time Temperature Precipitation Wind Pressure Humidity
    00:00 +28°C° 0 mm 8 mps 761 mmHg 23%
    01:00 +28°C° 0 mm 8 mps 761 mmHg 19%
    02:00 +28°C° 0 mm 8 mps 760 mmHg 16%
    03:00 +27°C° 0 mm 8 mps 761 mmHg 16%
    04:00 +27°C° 0 mm 8 mps 761 mmHg 17%
    05:00 +26°C° 0 mm 7 mps 761 mmHg 18%
    06:00 +27°C° 0 mm 7 mps 761 mmHg 17%
    07:00 +28°C° 0 mm 8 mps 762 mmHg 16%
    08:00 +28°C° 0 mm 8 mps 762 mmHg 15%
    09:00 +32°C° 0 mm 8 mps 762 mmHg 13%
    10:00 +34°C° 0 mm 7 mps 762 mmHg 11%
    11:00 +36°C° 0 mm 7 mps 762 mmHg 9%
    12:00 +38°C° 0 mm 7 mps 762 mmHg 9%
    13:00 +38°C° 0 mm 7 mps 761 mmHg 9%
    14:00 +39°C° 0 mm 7 mps 760 mmHg 9%
    15:00 +36°C° 0 mm 7 mps 760 mmHg 14%
    16:00 +35°C° 0 mm 7 mps 760 mmHg 18%
    17:00 +33°C° 0 mm 8 mps 760 mmHg 23%
    18:00 +31°C° 0 mm 8 mps 761 mmHg 30%
    19:00 +29°C° 0 mm 8 mps 762 mmHg 37%
    20:00 +27°C° 0 mm 8 mps 762 mmHg 44%
    21:00 +27°C° 0 mm 8 mps 762 mmHg 44%
    22:00 +27°C° 0 mm 8 mps 762 mmHg 44%
    23:00 +26°C° 0 mm 9 mps 762 mmHg 44%

    16 December, Sunday

    Time Temperature Precipitation Wind Pressure Humidity
    00:00 +26°C° 0 mm 9 mps 762 mmHg 45%
    01:00 +26°C° 0 mm 9 mps 762 mmHg 45%
    02:00 +26°C° 0 mm 9 mps 761 mmHg 46%
    03:00 +24°C° 0 mm 9 mps 761 mmHg 48%
    04:00 +24°C° 0 mm 9 mps 761 mmHg 49%
    05:00 +24°C° 0 mm 9 mps 761 mmHg 51%
    06:00 +24°C° 0 mm 9 mps 762 mmHg 47%
    07:00 +26°C° 0 mm 9 mps 762 mmHg 43%
    08:00 +26°C° 0 mm 9 mps 762 mmHg 39%
    09:00 +28°C° 0 mm 8 mps 762 mmHg 31%
    10:00 +30°C° 0 mm 7 mps 762 mmHg 23%
    11:00 +32°C° 0 mm 7 mps 762 mmHg 16%
    12:00 +34°C° 0 mm 6 mps 761 mmHg 16%
    13:00 +35°C° 0 mm 6 mps 761 mmHg 16%
    14:00 +36°C° 0 mm 6 mps 760 mmHg 16%
    15:00 +35°C° 0 mm 6 mps 760 mmHg 17%
    16:00 +34°C° 0 mm 6 mps 760 mmHg 19%
    17:00 +33°C° 0 mm 6 mps 760 mmHg 20%
    18:00 +32°C° 0 mm 6 mps 761 mmHg 26%
    19:00 +29°C° 0 mm 6 mps 761 mmHg 31%
    20:00 +27°C° 0 mm 6 mps 762 mmHg 36%
    21:00 +27°C° 0 mm 6 mps 762 mmHg 36%
    22:00 +27°C° 0 mm 6 mps 762 mmHg 36%
    23:00 +26°C° 0 mm 5 mps 762 mmHg 36%
    Show more